Weather History for Poteau, OK

Change the Weather History Date:

Sunday, February 10, 2013

  Actual Average (KFSM) Record (KFSM)
Temperature  
Mean Temperature 54 °F 43 °F  
Max Temperature 66 °F 54 °F 80 °F (1999)
Min Temperature 42 °F 32 °F 1 °F (1885)
Degree Days  
Heating Degree Days 11 22  
Month to date heating degree days 232  
Since 1 July heating degree days 2323  
Growing Degree Days 4 (Base 50)    
Moisture  
Dew Point 43 °F    
Average Humidity 66    
Maximum Humidity 100    
Minimum Humidity 28    
Precipitation  
Precipitation 0.44 in 0.10 in 3.85 in (1884)
Month to date precipitation 0.96  
Year to date precipitation 3.77  
Sea Level Pressure  
Sea Level Pressure 29.82 in    
Wind  
Wind Speed 6 mph (WSW)    
Max Wind Speed 16 mph    
Max Gust Speed 23 mph    
Visibility 9 miles    
Events Rain , Thunderstorm    
T = Trace of Precipitation, MM = Missing Value Source: NWS Daily Summary

Daily Weather History Graph

Daily Weather History Graph

Search for Another Location

Airport:

Trip Planner

Search our weather history database for the weather conditions in past years. The results will help you decide how hot, cold, wet, or windy it might be!

Date:

Astronomy

Feb. 10, 2013 Rise Set
Actual Time 7:09 AM CST 5:56 PM CST
Civil Twilight 6:43 AM CST 6:22 PM CST
Nautical Twilight 6:13 AM CST 6:52 PM CST
Astronomical Twilight 5:43 AM CST 7:22 PM CST
Moon 7:02 AM CST (2/10) 6:44 PM CST (2/10)
Length of Visible Light 11h 39m
Length of Day
10h 47m
New Moon, 0% of the Moon is Illuminated
Feb 10
New Moon
Feb 17
First Quarter
Feb 25
Full
Mar 4
Last Quarter
Mar 11
New

Hourly Weather History & Observations

Time (CST) Temp. Windchill Dew Point Humidity Pressure Visibility Wind Dir Wind Speed Gust Speed Precip Events Conditions
12:15 AM 53.6 °F - 50.0 °F 88% 29.85 in 10.0 mi ESE 4.6 mph - N/A   Overcast
12:35 AM 55.4 °F - 51.8 °F 88% 29.84 in 10.0 mi SE 6.9 mph - N/A   Overcast
12:55 AM 51.8 °F - 50.0 °F 94% 29.82 in 10.0 mi Calm Calm - N/A   Overcast
1:15 AM 55.4 °F - 53.6 °F 94% 29.81 in 10.0 mi SE 3.5 mph - N/A   Overcast
1:35 AM 53.6 °F - 50.0 °F 88% 29.79 in 10.0 mi Calm Calm - N/A   Overcast
1:55 AM 55.4 °F - 53.6 °F 94% 29.77 in 10.0 mi South 5.8 mph - N/A   Overcast
2:35 AM 59.0 °F - 55.4 °F 88% 29.72 in 10.0 mi South 10.4 mph - N/A   Overcast
2:55 AM 59.0 °F - 55.4 °F 88% 29.71 in 10.0 mi South 16.1 mph 23.0 mph N/A   Overcast
3:15 AM 59.0 °F - 55.4 °F 88% 29.71 in 10.0 mi South 8.1 mph 18.4 mph N/A   Overcast
3:35 AM 59.0 °F - 55.4 °F 88% 29.72 in 10.0 mi South 11.5 mph 23.0 mph N/A Thunderstorm Overcast
3:55 AM 59.0 °F - 55.4 °F 88% 29.70 in 7.0 mi South 10.4 mph 16.1 mph 0.02 in Rain , Thunderstorm Heavy Thunderstorms and Rain
4:15 AM 55.4 °F - 55.4 °F 100% 29.72 in 5.0 mi WSW 4.6 mph - 0.07 in Rain , Thunderstorm Heavy Thunderstorms and Rain
4:35 AM 55.4 °F - 55.4 °F 100% 29.72 in 7.0 mi WSW 3.5 mph - 0.12 in Rain , Thunderstorm Light Thunderstorms and Rain
4:55 AM 55.4 °F - 55.4 °F 100% 29.71 in 5.0 mi Calm Calm - 0.15 in Rain , Thunderstorm Light Thunderstorms and Rain
5:15 AM 55.4 °F - 55.4 °F 100% 29.72 in 4.0 mi Calm Calm - 0.08 in Rain , Thunderstorm Heavy Thunderstorms and Rain
5:35 AM 55.4 °F - 55.4 °F 100% 29.73 in 2.5 mi Calm Calm - 0.26 in Rain , Thunderstorm Heavy Thunderstorms and Rain
6:15 AM 55.4 °F - 55.4 °F 100% 29.70 in 3.0 mi NNE 3.5 mph - N/A   Overcast
6:35 AM 53.6 °F - 53.6 °F 100% 29.70 in 3.0 mi Calm Calm - N/A   Overcast
6:55 AM 53.6 °F - 53.6 °F 100% 29.70 in 3.0 mi North 3.5 mph - N/A   Overcast
7:15 AM 53.6 °F - 53.6 °F 100% 29.72 in 2.5 mi Calm Calm - N/A Rain Heavy Rain
7:35 AM 53.6 °F - 53.6 °F 100% 29.74 in 1.5 mi Calm Calm - 0.01 in   Light Drizzle
7:55 AM 53.6 °F - 53.6 °F 100% 29.74 in 2.0 mi Calm Calm - 0.01 in   Overcast
8:15 AM 53.6 °F - 53.6 °F 100% 29.75 in 2.0 mi Calm Calm - N/A   Overcast
8:35 AM 53.6 °F - 53.6 °F 100% 29.76 in 3.0 mi SSW 3.5 mph - N/A   Scattered Clouds
8:55 AM 55.4 °F - 55.4 °F 100% 29.76 in 7.0 mi Calm Calm - N/A   Scattered Clouds
9:15 AM 59.0 °F - 59.0 °F 100% 29.76 in 10.0 mi Calm Calm - N/A   Clear
9:35 AM 59.0 °F - 59.0 °F 100% 29.77 in 10.0 mi SSW 4.6 mph - N/A   Scattered Clouds
9:55 AM 60.8 °F - 55.4 °F 82% 29.77 in 10.0 mi SSW 10.4 mph 17.3 mph N/A   Clear
10:15 AM 60.8 °F - 53.6 °F 77% 29.78 in 10.0 mi SW 11.5 mph - N/A   Scattered Clouds
10:35 AM 60.8 °F - 50.0 °F 68% 29.79 in 10.0 mi WSW 12.7 mph 20.7 mph N/A   Clear
10:55 AM 60.8 °F - 46.4 °F 59% 29.79 in 10.0 mi WSW 12.7 mph 19.6 mph N/A   Clear
11:15 AM 60.8 °F - 42.8 °F 52% 29.79 in 10.0 mi WSW 10.4 mph 17.3 mph N/A   Clear
11:35 AM 60.8 °F - 37.4 °F 42% 29.79 in 10.0 mi WSW 12.7 mph 19.6 mph N/A   Clear
11:55 AM 62.6 °F - 37.4 °F 39% 29.78 in 10.0 mi SSW 11.5 mph - N/A   Clear
12:15 PM 62.6 °F - 35.6 °F 37% 29.77 in 10.0 mi SW 11.5 mph - N/A   Clear
12:35 PM 62.6 °F - 35.6 °F 37% 29.77 in 10.0 mi SW 12.7 mph - N/A   Clear
12:55 PM 62.6 °F - 35.6 °F 37% 29.76 in 10.0 mi SW 12.7 mph 19.6 mph N/A   Clear
1:15 PM 64.4 °F - 35.6 °F 34% 29.76 in 10.0 mi SW 15.0 mph 19.6 mph N/A   Clear
1:35 PM 64.4 °F - 35.6 °F 34% 29.76 in 10.0 mi WSW 11.5 mph 18.4 mph N/A   Clear
1:55 PM 64.4 °F - 33.8 °F 32% 29.76 in 10.0 mi WSW 13.8 mph 21.9 mph N/A   Clear
2:15 PM 66.2 °F - 33.8 °F 30% 29.77 in 10.0 mi SW 13.8 mph 19.6 mph N/A   Clear
2:35 PM 66.2 °F - 33.8 °F 30% 29.77 in 10.0 mi West 11.5 mph 18.4 mph N/A   Clear
2:55 PM 66.2 °F - 35.6 °F 32% 29.78 in 10.0 mi West 9.2 mph 18.4 mph N/A   Clear
3:15 PM 64.4 °F - 32.0 °F 30% 29.78 in 10.0 mi West 16.1 mph 23.0 mph N/A   Clear
3:35 PM 64.4 °F - 30.2 °F 28% 29.79 in 10.0 mi WSW 13.8 mph 21.9 mph N/A   Clear
3:55 PM 64.4 °F - 32.0 °F 30% 29.80 in 10.0 mi West 13.8 mph 17.3 mph N/A   Clear
4:15 PM 62.6 °F - 32.0 °F 32% 29.81 in 10.0 mi WSW 12.7 mph 19.6 mph N/A   Clear
4:35 PM 62.6 °F - 32.0 °F 32% 29.82 in 10.0 mi WSW 12.7 mph - N/A   Clear
4:55 PM 62.6 °F - 32.0 °F 32% 29.83 in 10.0 mi WSW 9.2 mph - N/A   Clear
5:15 PM 60.8 °F - 32.0 °F 34% 29.84 in 10.0 mi WSW 8.1 mph - N/A   Clear
5:35 PM 60.8 °F - 33.8 °F 36% 29.85 in 10.0 mi SW 8.1 mph - N/A   Clear
5:55 PM 59.0 °F - 33.8 °F 39% 29.85 in 10.0 mi SW 4.6 mph - N/A   Clear
6:15 PM 59.0 °F - 33.8 °F 39% 29.86 in 10.0 mi SW 3.5 mph - N/A   Clear
6:35 PM 55.4 °F - 33.8 °F 44% 29.88 in 10.0 mi Calm Calm - N/A   Clear
6:55 PM 55.4 °F - 35.6 °F 47% 29.88 in 10.0 mi Calm Calm - N/A   Clear
7:15 PM 51.8 °F - 35.6 °F 54% 29.90 in 10.0 mi Calm Calm - N/A   Clear
7:35 PM 51.8 °F - 39.2 °F 62% 29.91 in 10.0 mi Calm Calm - N/A   Clear
7:55 PM 50.0 °F - 37.4 °F 62% 29.92 in 10.0 mi Calm Calm - N/A   Clear
8:15 PM 46.4 °F - 39.2 °F 76% 29.94 in 10.0 mi Calm Calm - N/A   Clear
8:35 PM 44.6 °F - 37.4 °F 76% 29.95 in 10.0 mi Calm Calm - N/A   Clear
8:55 PM 44.6 °F - 37.4 °F 76% 29.96 in 10.0 mi Calm Calm - N/A   Clear
9:15 PM 44.6 °F - 37.4 °F 76% 29.97 in 10.0 mi Calm Calm - N/A   Clear
9:35 PM 42.8 °F 39.3 °F 37.4 °F 81% 30.00 in 10.0 mi WNW 5.8 mph - N/A   Clear
10:15 PM 53.6 °F - 32.0 °F 44% 30.03 in 10.0 mi North 9.2 mph 16.1 mph N/A   Clear
10:35 PM 53.6 °F - 32.0 °F 44% 30.04 in 10.0 mi NNW 9.2 mph 20.7 mph N/A   Clear
10:55 PM 51.8 °F - 32.0 °F 47% 30.05 in 10.0 mi NNW 13.8 mph 18.4 mph N/A   Clear
11:15 PM 51.8 °F - 32.0 °F 47% 30.06 in 10.0 mi North 6.9 mph 16.1 mph N/A   Clear
11:35 PM 51.8 °F - 32.0 °F 47% 30.07 in 10.0 mi North 4.6 mph - N/A   Clear
11:55 PM 51.8 °F - 32.0 °F 47% 30.07 in 10.0 mi NNW 4.6 mph - N/A   Clear